Theta_e
287 286 287 286 285 285 284 286 284 284 285 286 286 284 283 286 283 281 284 289 293 295 298 302 304 306 306 307 309 311 312 313 314 315 315 315 316 316 316 316 316 316 315 315 314 314 313 313 312 311 311 310 310 310 309 307 306 306 306 305 305 305 304 303 303 303 303 302 301 301 300 299 298 297 297 296 295 294 293 293 293 290 290 290 289 289 289
289 289 288 287 286 284 285 285 285 285 285 286 287 285 284 287 285 285 287 292 295 297 299 302 306 308 308 308 310 310 311 311 312 313 314 315 315 315 315 315 316 316 316 315 314 314 313 312 311 311 310 310 309 308 307 306 306 306 307 306 305 304 303 302 302 302 302 302 301 300 299 298 298 297 296 296 295 293 292 292 291 291 290 290 289 288 288
287 289 290 286 286 286 285 285 284 285 284 285 285 286 287 289 290 289 289 291 294 296 296 301 305 308 309 310 309 310 311 311 311 312 313 314 315 315 316 316 316 316 315 314 314 313 313 312 311 310 310 310 309 309 308 306 306 307 307 305 304 303 303 302 302 302 302 301 300 300 299 298 298 297 296 295 293 292 292 291 291 292 289 288 288 288 288
284 287 288 287 285 285 284 284 284 284 284 285 285 286 287 287 287 288 291 290 291 293 300 303 306 307 309 308 309 309 310 311 311 312 313 314 315 315 316 316 316 315 315 314 313 313 312 312 311 310 310 310 309 308 307 307 307 307 306 305 303 303 303 302 302 301 301 300 299 299 299 298 298 296 295 293 292 291 290 290 290 289 288 288 287 287 288
279 286 288 285 285 284 284 281 282 284 283 284 285 288 288 289 291 289 286 291 297 297 301 303 304 307 308 308 309 310 310 311 312 312 312 314 315 315 316 316 315 315 315 314 314 313 313 312 311 311 311 309 308 308 307 307 307 306 305 304 303 303 303 302 301 301 300 300 299 299 299 298 297 295 293 292 290 289 289 290 288 288 287 287 286 286 287
281 285 286 285 283 275 274 283 285 287 287 286 287 287 288 287 293 291 294 296 295 300 301 303 303 305 307 310 311 313 312 311 311 312 313 314 315 315 316 316 316 316 315 315 314 314 313 313 312 312 311 310 309 309 309 308 307 306 305 304 304 303 302 302 301 300 300 299 299 299 299 298 296 294 292 290 289 289 290 289 287 287 286 286 286 286 287
282 282 281 281 275 275 282 287 291 292 289 289 287 288 289 288 291 292 294 296 300 303 305 306 307 308 311 312 312 312 313 313 313 312 313 314 314 315 315 315 315 315 315 314 313 313 313 312 312 311 310 310 310 309 308 306 306 305 304 304 303 302 301 301 300 300 300 299 299 299 298 298 296 294 291 290 289 289 288 288 287 287 287 286 286 288 286
280 281 276 276 275 282 288 290 292 294 290 289 291 289 289 292 291 291 293 298 302 303 303 304 306 307 306 309 309 311 313 314 314 313 313 314 315 315 316 316 315 315 314 314 313 313 313 312 312 311 309 308 307 306 306 305 304 304 303 303 302 302 301 300 300 300 300 299 299 298 298 297 296 294 292 290 289 289 288 287 287 288 287 288 287 285 285
279 278 275 279 284 288 289 289 291 290 288 288 288 281 287 294 292 290 292 296 301 303 303 303 305 307 306 304 305 308 311 313 314 315 315 315 315 316 316 317 316 316 315 314 314 313 312 312 310 310 309 308 306 305 305 304 303 303 302 302 301 301 301 300 300 300 300 299 299 298 298 297 296 295 293 291 290 291 288 288 288 288 288 287 287 286 286
277 277 277 276 276 275 282 286 292 294 295 292 289 288 286 290 290 291 292 298 303 303 302 303 305 307 303 299 304 308 309 312 313 312 312 315 316 316 316 315 314 314 314 314 313 313 311 310 309 309 308 307 306 305 304 303 302 302 302 301 301 301 300 300 300 300 300 299 299 298 298 297 296 295 294 292 291 292 290 289 289 289 289 288 286 287 286
281 277 275 276 276 279 282 289 293 295 295 293 290 289 284 288 288 293 293 298 299 300 303 303 307 305 297 300 305 309 310 311 313 313 314 315 315 315 315 314 313 312 312 313 313 312 310 308 308 308 307 307 305 304 303 303 302 301 301 301 301 300 300 300 300 300 299 299 298 298 298 297 296 295 294 293 293 292 291 291 291 290 292 289 287 287 287
277 275 277 279 275 283 292 290 292 294 294 293 290 281 276 287 290 292 293 297 298 297 299 305 307 304 298 300 306 310 312 314 314 314 313 313 313 313 313 313 313 313 312 312 311 310 308 307 307 307 307 306 305 304 303 302 301 300 300 300 300 301 300 300 300 299 299 299 299 298 298 297 296 295 294 293 292 291 291 291 291 290 291 290 289 289 289
280 280 277 276 279 286 289 291 294 294 295 289 282 276 284 288 290 293 295 294 299 300 304 305 304 306 308 308 308 309 312 311 310 310 311 312 313 312 312 311 308 311 311 311 310 309 308 307 306 306 306 305 304 304 302 301 300 300 300 301 301 301 300 300 299 299 299 299 298 298 298 296 296 295 294 292 291 291 291 291 290 289 290 290 290 289 289
278 275 280 279 279 285 292 295 296 295 292 283 275 284 290 294 296 296 297 295 295 304 306 306 308 310 304 301 307 310 312 313 312 312 310 310 310 309 310 308 310 311 310 310 309 308 307 306 305 305 306 304 304 302 301 299 300 300 301 301 301 300 299 299 299 299 299 299 298 298 297 296 295 293 292 292 291 291 292 292 291 291 291 291 291 289 289
277 273 274 278 279 289 298 297 295 293 287 284 285 292 298 296 298 298 300 298 295 301 306 308 310 308 306 303 305 309 310 310 310 310 310 310 310 309 308 307 309 310 309 308 307 307 307 306 305 305 305 304 302 301 299 299 300 300 300 300 299 299 298 298 298 298 298 298 298 298 297 296 295 292 291 292 292 292 292 292 292 292 291 290 289 289 290
277 276 277 278 283 288 293 296 288 292 293 293 292 298 299 301 298 298 299 299 297 297 303 306 307 308 304 302 304 306 309 310 309 309 310 310 309 309 309 310 309 309 309 308 306 306 306 306 305 305 305 303 302 300 299 300 300 300 300 299 298 298 298 298 298 298 298 298 298 297 296 295 295 293 292 293 293 293 292 292 291 291 290 290 289 289 290
281 280 278 283 286 292 297 296 296 297 301 301 296 298 300 302 304 300 301 302 300 298 299 302 304 301 302 304 307 309 308 309 309 309 309 309 309 309 308 308 308 308 308 306 305 304 305 305 305 305 305 303 301 300 299 299 299 299 298 298 297 297 297 297 297 298 298 297 297 296 296 296 295 295 294 294 293 292 292 291 291 291 290 291 290 290 290
292 293 291 297 298 300 300 301 300 303 304 303 302 301 301 301 301 300 304 303 302 301 301 302 300 302 301 303 304 306 308 309 309 308 308 307 307 308 308 307 307 308 307 306 304 303 304 304 304 305 305 304 301 300 299 299 299 299 298 297 297 296 296 297 297 297 296 296 296 296 296 296 296 296 295 294 294 293 293 292 292 292 291 291 291 290 290
289 289 292 295 298 297 298 301 301 301 302 302 302 302 301 302 301 302 302 301 301 302 303 303 302 300 302 304 302 303 305 306 307 307 307 306 307 307 307 306 306 307 306 305 303 303 302 304 304 304 304 304 303 300 298 299 298 298 297 297 297 296 296 296 296 296 295 295 295 295 295 296 296 296 295 294 294 294 293 293 292 292 291 291 290 290 289
284 288 291 293 295 297 299 297 299 300 301 301 301 301 302 302 303 302 303 302 302 301 303 302 303 302 303 304 303 305 305 305 305 305 305 305 306 307 307 306 307 306 306 305 303 302 302 303 303 303 303 303 301 299 299 299 298 298 297 297 296 296 296 296 296 296 295 293 294 295 295 295 295 295 295 295 294 294 294 293 293 292 291 290 290 290 290
292 294 294 295 296 298 298 300 300 299 299 301 300 300 301 302 303 302 302 301 302 301 303 301 304 303 301 304 305 305 305 305 306 307 307 307 306 306 305 305 306 306 305 304 303 302 302 302 302 302 302 301 300 298 298 298 298 297 296 295 296 296 296 296 295 296 296 296 296 295 295 295 295 295 295 295 295 294 295 295 295 294 292 291 291 292 292
287 288 293 294 291 291 296 299 300 300 300 299 301 301 303 302 303 302 303 303 302 302 302 303 305 304 303 303 305 306 306 307 306 305 305 305 305 305 305 306 306 305 305 304 302 302 301 301 302 301 300 299 299 298 298 298 298 297 296 296 296 295 296 295 295 295 295 295 296 296 295 294 294 292 290 293 294 295 294 294 293 293 293 293 293 291 291
287 293 294 294 293 294 296 298 300 299 300 300 301 300 300 301 300 301 302 303 303 303 302 302 304 304 304 303 303 303 303 304 304 305 305 304 304 304 304 304 303 303 303 302 301 300 300 301 301 300 299 298 298 298 298 298 298 297 296 295 295 295 295 295 294 295 295 295 296 295 295 294 294 292 291 289 288 289 291 292 291 291 291 292 291 291 293
295 295 294 296 295 297 300 300 299 301 301 301 301 300 300 300 300 300 301 302 303 301 302 303 303 304 304 303 305 303 301 302 303 304 304 305 305 305 305 305 304 302 301 301 300 300 300 300 300 299 298 297 298 298 298 298 298 297 296 296 295 295 295 295 294 294 296 295 295 295 294 294 294 293 292 291 290 288 288 289 290 290 290 290 291 290 291
299 298 297 297 296 299 300 299 300 299 301 302 301 301 299 300 301 299 300 301 300 302 303 301 302 302 305 304 304 304 303 303 303 304 303 303 303 304 304 303 302 302 302 302 301 300 299 299 299 298 297 297 298 298 298 298 298 297 296 296 295 295 295 295 294 294 295 295 294 294 294 292 292 292 292 291 290 288 288 288 288 289 290 290 290 290 290
299 300 300 299 299 298 298 300 301 300 300 299 299 299 300 303 301 301 300 299 300 300 301 303 303 302 304 305 304 302 303 303 301 301 303 302 302 302 303 303 303 303 301 301 300 298 298 298 298 297 296 296 297 298 298 298 297 297 297 296 296 296 295 295 295 295 295 295 294 294 294 293 293 292 291 291 291 289 287 287 288 288 288 288 289 289 289
300 301 302 301 299 299 298 299 299 300 299 298 300 299 299 297 300 299 298 298 298 299 299 300 303 304 303 303 302 303 304 301 301 303 303 302 302 303 304 304 303 302 300 300 299 297 296 297 296 296 296 297 298 298 298 298 297 297 297 296 296 292 290 293 295 295 295 295 295 294 294 293 291 290 290 290 290 289 288 287 287 287 287 288 287 288 288
300 299 297 296 295 296 298 298 298 299 298 298 299 299 299 298 299 300 299 298 300 299 299 298 300 302 303 300 303 300 300 301 302 302 302 302 303 304 304 303 302 301 300 299 298 296 296 296 296 296 296 297 298 298 298 298 297 297 297 296 296 295 294 294 295 295 295 295 295 295 294 293 292 291 290 289 288 288 287 287 287 286 285 285 285 287 289
300 299 297 295 296 296 297 297 296 296 297 296 296 296 298 298 296 297 297 296 296 297 299 298 297 299 302 302 303 302 302 302 302 302 303 303 302 303 302 302 301 300 299 297 297 295 296 296 296 296 296 297 297 297 298 298 297 297 296 296 296 295 295 295 295 295 295 295 295 295 292 290 291 290 289 289 288 287 286 286 285 285 285 283 284 286 286
298 297 299 298 296 297 299 297 297 297 296 295 296 295 295 297 297 295 294 296 296 297 297 296 297 297 297 299 300 302 302 302 303 303 302 301 302 301 301 300 299 298 297 296 296 295 296 297 297 296 296 296 296 297 297 297 297 297 297 297 296 295 295 296 296 295 295 295 294 290 291 291 291 291 290 289 289 288 287 286 285 285 284 283 286 284 284
297 297 297 296 297 297 299 297 296 296 295 293 293 294 295 294 295 294 296 296 297 296 295 295 296 295 296 297 297 297 300 300 299 298 298 298 299 300 300 300 299 297 297 297 296 295 296 296 296 296 296 296 297 297 297 296 297 297 297 297 296 292 291 291 292 296 295 293 292 293 292 291 291 290 289 289 289 288 288 286 285 284 284 284 284 284 285
296 296 296 294 294 295 295 295 295 296 295 295 295 295 296 296 297 297 297 296 296 295 294 294 295 295 294 295 295 295 297 298 298 298 298 297 297 298 299 301 302 298 300 299 297 296 296 296 295 296 296 296 296 296 297 296 297 297 296 293 295 294 291 290 293 293 293 291 292 293 291 292 292 291 290 288 289 288 288 286 286 285 284 283 284 284 286
296 293 293 293 294 294 294 293 295 295 294 294 294 295 295 295 295 296 295 295 295 294 293 293 293 293 294 294 296 296 296 296 297 299 299 299 300 299 299 300 298 297 298 298 298 297 297 296 296 296 296 296 296 296 297 297 297 297 297 296 296 295 290 290 292 293 292 291 291 293 292 291 292 291 291 289 289 287 287 287 286 286 285 285 285 286 286
297 296 296 294 295 294 294 295 293 294 293 293 294 293 294 295 294 294 294 293 294 294 293 292 293 292 293 294 294 294 296 297 295 295 296 296 296 296 297 297 296 296 294 295 296 296 296 295 295 295 296 297 297 297 297 297 297 297 297 296 295 293 292 292 291 293 292 291 292 291 291 291 291 291 290 289 289 288 287 287 286 286 286 286 286 286 287
295 294 293 293 292 293 296 298 295 293 293 294 293 293 293 293 293 293 293 294 293 293 293 293 294 294 294 293 293 293 293 294 293 293 291 291 293 294 295 295 296 295 294 294 295 296 297 298 298 298 298 298 298 298 298 298 298 297 297 296 295 294 293 293 293 293 292 292 292 292 291 291 291 289 290 290 289 288 287 287 287 287 286 286 286 286 286
294 294 293 292 292 292 293 295 295 295 294 292 293 293 293 293 293 293 294 294 294 295 294 294 294 293 292 292 291 291 289 287 288 288 290 290 292 294 296 296 296 294 293 293 295 297 298 298 292 292 297 298 298 298 298 298 298 298 297 297 295 294 294 293 294 293 293 293 292 291 291 290 290 290 290 290 289 289 288 288 287 287 287 287 287 286 286
294 295 293 293 292 292 292 293 294 294 293 293 293 294 293 293 294 293 294 295 295 294 294 294 294 293 290 287 288 287 287 288 288 288 288 289 292 294 295 295 295 294 293 293 294 296 297 296 291 290 295 297 298 298 297 291 298 298 297 297 296 296 295 294 294 294 293 292 292 291 290 289 289 290 289 290 289 288 288 288 287 287 287 287 286 286 285
294 294 293 293 292 292 292 292 293 293 294 293 292 293 294 294 294 295 296 295 294 294 293 293 293 291 289 288 287 287 285 286 286 287 288 289 291 293 293 294 294 294 294 294 294 295 296 293 289 293 298 298 298 299 295 290 292 297 298 297 296 295 294 294 293 293 293 292 290 291 290 290 290 290 289 289 289 288 287 287 287 287 286 286 285 285 285
294 293 293 292 293 293 293 293 294 294 295 295 293 293 293 294 294 295 295 294 292 293 294 293 292 292 291 290 288 287 287 285 286 288 289 290 290 292 290 291 293 294 295 296 297 297 295 292 295 298 297 297 298 298 293 289 291 298 297 297 296 296 294 294 294 293 293 292 291 290 291 290 290 290 289 288 288 286 286 287 287 286 285 285 284 285 285
292 293 293 293 293 292 293 292 292 293 294 295 297 296 294 295 295 295 294 294 293 293 294 294 293 292 289 289 288 288 288 287 288 289 290 291 290 290 290 292 293 294 295 292 297 296 292 290 295 298 298 298 299 298 293 291 292 296 296 296 296 295 295 294 294 294 293 291 290 288 289 290 289 289 289 288 288 287 286 286 286 285 285 284 284 284 284
292 292 291 292 292 292 294 294 293 293 294 295 294 295 294 296 296 295 295 295 294 293 294 294 293 292 291 292 291 290 289 289 289 291 291 291 289 288 290 290 292 292 294 296 295 293 290 293 297 297 298 299 299 294 295 290 295 296 295 295 295 295 294 294 293 294 292 291 291 290 290 290 288 288 288 287 287 287 287 286 286 286 286 286 285 284 284
292 292 292 292 291 291 291 292 293 294 293 293 294 294 295 296 297 297 294 293 293 293 293 293 293 293 292 290 289 289 289 289 290 290 292 292 291 288 287 289 291 293 291 290 289 290 292 295 294 293 297 298 296 291 290 292 296 296 295 294 294 294 294 293 292 293 292 291 291 293 292 291 290 288 287 287 286 286 286 285 285 285 286 286 286 286 286
292 293 292 292 291 291 293 293 294 294 293 293 294 295 295 294 295 295 295 293 294 293 292 291 290 290 291 290 290 290 289 289 290 290 291 291 292 292 292 292 293 293 289 290 292 292 294 295 295 294 293 294 294 289 290 295 296 296 295 294 293 293 293 293 292 293 292 291 290 291 291 290 289 288 287 286 286 286 285 285 286 286 286 286 286 286 286
291 291 291 293 292 292 291 292 292 293 294 293 293 294 295 294 295 296 296 296 295 294 293 291 290 290 290 290 291 289 289 290 290 290 291 291 292 293 292 291 291 290 288 290 291 292 293 294 294 293 289 290 289 289 294 296 297 296 296 294 293 293 292 291 291 291 291 290 290 290 290 289 288 288 287 286 285 285 284 285 286 286 286 285 285 285 286
292 292 292 294 293 291 291 292 294 295 294 293 293 294 294 294 294 296 298 298 297 295 292 293 293 294 293 292 292 292 292 293 293 293 291 288 288 291 291 290 291 289 289 289 290 291 293 294 292 289 289 289 289 289 295 296 296 295 295 294 293 292 291 290 289 290 290 291 291 289 289 288 288 287 287 287 286 286 286 286 287 287 286 286 286 285 286
293 293 292 290 293 293 294 295 294 293 294 294 293 294 293 294 295 295 297 298 297 296 295 295 295 295 294 293 291 291 291 291 292 293 294 293 291 291 292 290 290 289 289 289 290 291 292 290 289 288 288 288 288 291 295 295 294 294 293 293 292 291 291 291 290 289 289 289 289 289 288 288 287 287 287 287 287 287 287 287 286 286 286 286 287 287 287
293 293 293 293 292 292 292 292 293 294 294 294 294 294 293 292 293 295 295 297 298 296 295 295 296 297 297 296 294 292 289 290 291 293 293 292 289 289 290 289 288 288 288 290 290 291 290 291 289 288 288 288 288 294 295 295 294 294 293 292 291 291 291 291 291 291 289 289 288 288 288 288 288 288 288 287 287 287 286 286 286 286 286 286 286 286 286
294 294 293 293 293 292 293 294 294 295 295 296 295 296 294 293 292 293 294 297 298 297 295 294 294 294 295 294 294 294 294 292 288 290 292 293 291 291 290 289 289 288 288 289 289 289 289 289 289 288 288 287 290 293 293 294 294 293 293 292 292 291 291 291 291 290 289 288 287 288 286 287 287 287 287 287 287 287 287 287 287 287 287 286 287 287 286
294 295 293 292 293 293 294 293 293 292 295 294 293 294 293 293 292 292 293 294 296 296 297 297 296 295 294 294 294 294 294 293 293 290 292 294 294 293 292 290 288 287 288 290 291 290 288 288 288 288 288 288 292 293 293 292 292 291 292 291 291 291 291 291 291 291 290 289 288 288 288 288 288 288 288 288 287 288 287 287 287 287 287 287 287 287 287
294 293 294 295 293 293 292 292 291 293 292 291 293 293 291 292 293 293 292 293 295 294 295 296 297 297 295 295 295 295 295 294 293 292 290 293 294 295 292 291 289 288 289 291 291 291 289 288 287 288 288 290 292 292 292 292 292 290 290 290 289 289 290 289 288 288 289 289 288 288 288 288 288 288 288 288 288 287 287 287 287 287 287 287 286 287 287
293 294 294 292 293 293 293 293 292 292 293 294 294 293 292 293 295 293 292 292 292 292 292 293 292 293 295 296 295 294 294 294 293 293 292 293 294 292 292 292 291 289 289 290 291 291 290 289 289 289 288 290 291 291 291 291 291 290 289 289 289 288 288 288 287 287 288 288 288 288 288 288 288 288 288 288 287 287 287 286 286 286 286 286 286 286 286
294 293 294 293 294 295 294 294 293 291 291 291 292 292 293 294 293 292 291 289 291 292 292 292 291 292 292 294 294 295 295 294 292 292 291 292 293 293 292 290 290 289 290 291 293 293 292 291 289 288 288 290 290 291 289 289 291 291 291 289 289 290 289 289 289 289 289 289 289 289 289 289 289 288 288 287 287 287 287 287 287 287 286 287 287 286 285
Wind_Speed
3 6 3 5 4 6 7 9 8 6 6 7 7 5 4 7 5 8 4 6 7 8 10 13 15 15 16 17 16 14 14 12 12 12 14 15 15 15 15 16 16 16 16 15 15 15 14 13 13 12 11 11 10 10 10 10 10 10 10 10 10 10 10 10 9 8 8 8 8 9 8 8 8 8 8 7 7 6 6 6 5 5 5 4 5 5 5
2 1 3 4 6 3 6 7 9 8 10 9 8 5 4 9 4 7 6 9 12 9 9 13 15 13 10 7 8 10 13 15 15 16 16 16 15 16 16 16 17 17 17 15 15 15 14 15 15 14 12 12 11 11 11 10 10 10 10 10 11 11 11 10 9 8 8 8 9 10 9 9 8 8 8 7 7 7 6 6 5 5 5 4 4 5 5
1 2 2 4 7 6 5 4 5 6 6 5 3 2 1 3 4 1 4 6 9 6 2 1 5 8 10 11 13 15 15 15 16 17 17 17 17 17 17 16 15 15 15 14 14 15 15 15 15 14 13 12 10 10 10 11 12 11 11 10 10 11 11 10 10 10 9 8 9 10 9 9 8 8 8 7 7 7 6 5 5 4 4 5 4 4 5
1 2 6 3 4 4 3 1 3 6 5 5 3 2 5 4 3 2 6 3 7 6 1 7 6 7 13 15 13 12 12 15 16 17 18 18 17 17 17 16 15 15 15 16 17 17 16 15 14 13 12 11 12 11 10 10 10 11 11 11 10 10 10 10 10 10 9 9 9 9 10 9 9 8 8 8 7 7 6 5 4 5 5 4 4 4 4
1 2 2 5 7 5 1 3 6 8 1 1 1 0 2 3 8 8 6 8 8 4 5 9 7 11 9 10 13 14 13 15 17 19 19 18 18 18 18 17 17 17 17 18 18 16 15 15 14 13 12 12 12 12 11 10 10 10 11 11 11 10 10 10 10 9 10 11 10 10 10 10 9 8 9 8 8 7 6 5 4 5 4 4 4 3 5
1 5 5 2 4 4 4 2 3 6 5 4 4 2 5 5 5 5 5 6 2 5 6 11 10 11 13 16 16 18 19 16 14 14 15 17 18 18 17 18 18 17 14 12 13 16 16 15 15 13 13 13 12 13 13 11 11 10 11 11 11 10 10 10 10 10 10 10 10 10 10 10 10 9 9 9 7 6 6 5 5 5 4 4 4 4 4
0 3 3 4 5 6 5 2 5 4 4 8 7 0 2 2 1 2 3 2 6 9 12 14 15 16 15 11 11 10 11 15 17 18 16 14 14 15 15 14 13 13 14 14 14 14 14 14 12 11 10 9 9 8 9 11 11 11 10 11 10 10 11 10 10 10 10 10 10 10 10 10 10 9 9 8 7 6 7 7 7 6 6 5 4 4 4
0 3 4 3 3 4 5 7 2 2 4 2 7 2 4 1 3 3 4 8 8 9 7 4 1 1 3 5 2 3 8 13 15 15 15 17 16 17 16 18 17 16 17 18 18 17 13 13 12 13 12 11 12 11 10 11 10 10 10 10 10 10 11 11 11 10 11 10 10 9 9 10 11 10 9 9 9 6 6 5 4 4 4 4 4 4 3
2 1 1 3 3 3 2 2 4 2 3 7 8 4 2 0 1 4 4 6 5 6 4 3 5 7 5 3 1 1 6 8 8 14 17 18 19 19 17 17 18 18 16 16 15 13 13 13 13 13 11 11 11 10 11 10 11 10 10 10 11 11 11 10 10 10 10 11 11 10 10 11 11 10 10 8 7 6 7 6 6 5 5 4 3 4 4
3 3 2 2 3 0 5 6 4 1 0 1 4 8 2 3 2 3 5 6 9 7 5 6 7 8 7 2 8 7 6 8 8 5 4 7 10 11 11 9 8 10 10 10 11 13 13 13 13 12 13 13 12 12 11 11 11 11 11 11 11 11 11 11 11 11 11 11 11 10 10 11 11 9 8 7 7 6 8 7 6 5 4 4 3 3 4
1 4 2 1 3 2 5 7 6 4 1 4 3 6 3 3 2 1 5 5 2 5 10 9 9 8 4 8 11 8 9 8 10 11 10 11 10 10 12 15 15 13 13 15 14 13 13 14 12 13 13 14 14 13 13 12 11 12 12 11 12 12 11 11 10 10 10 11 10 10 10 10 10 10 9 9 7 6 6 6 6 5 4 5 3 2 2
1 3 2 1 2 1 1 4 6 4 1 3 4 5 4 3 3 2 5 7 7 4 3 7 10 12 8 7 12 9 16 16 14 15 15 13 11 10 8 7 10 12 13 13 12 13 14 13 13 15 14 13 13 13 13 12 12 12 13 12 11 10 11 11 11 11 10 11 10 11 10 9 8 9 7 7 7 6 5 6 6 5 4 5 5 4 2
1 4 0 1 3 5 4 5 7 4 1 3 4 5 3 3 2 3 3 7 7 7 7 7 9 9 11 8 3 5 10 8 6 5 5 7 10 13 13 13 13 12 13 15 17 17 14 13 13 14 14 14 13 12 12 12 13 12 11 10 11 11 11 10 10 10 9 10 11 9 9 9 8 7 7 8 7 6 6 5 5 5 5 4 4 4 3
3 2 2 3 4 6 2 5 3 2 1 1 3 3 2 1 0 1 1 3 7 9 11 8 8 10 2 6 5 10 14 18 13 9 9 10 7 5 6 12 14 12 12 11 10 10 10 14 14 13 14 14 13 13 12 13 11 9 10 11 11 11 11 11 11 10 10 9 9 9 8 9 8 7 5 7 7 7 7 6 6 6 4 4 4 3 3
2 2 3 2 1 1 1 6 2 3 1 4 3 1 0 2 0 1 1 2 6 8 10 11 13 8 5 0 4 8 7 9 13 15 15 16 16 15 13 11 11 14 13 13 13 13 12 13 13 13 15 15 13 12 13 12 10 11 11 11 11 11 11 11 11 10 10 11 9 8 8 9 10 8 7 8 7 7 8 7 7 6 5 4 3 3 3
5 2 2 2 4 4 2 1 2 2 2 1 3 3 1 0 1 2 4 2 5 7 8 11 10 8 4 1 3 5 6 6 6 7 7 8 10 11 11 14 14 14 13 12 12 11 12 13 13 13 15 14 12 13 13 9 10 11 12 11 12 12 11 11 11 10 10 11 10 9 10 9 9 9 8 7 7 6 7 7 6 6 5 5 4 4 4
2 2 3 3 3 5 4 3 1 1 2 1 5 1 2 2 1 3 1 4 4 7 6 6 6 4 4 5 8 11 11 11 13 15 16 18 18 17 17 16 14 13 15 15 13 12 12 13 12 13 13 15 14 14 10 11 13 13 12 12 12 11 11 11 11 10 10 10 10 10 10 10 10 9 8 8 8 6 7 7 7 6 6 5 5 6 5
1 0 2 1 1 1 2 1 0 1 2 3 2 2 3 1 3 2 0 3 6 5 5 6 3 6 2 1 4 3 7 10 8 7 7 7 8 9 10 11 12 12 11 12 13 13 11 13 12 12 12 13 15 12 11 12 13 13 13 13 12 12 11 10 11 11 10 9 9 10 10 9 10 9 10 8 8 7 7 7 7 6 6 6 5 5 6
5 2 2 2 1 2 1 1 1 1 0 0 2 1 1 0 1 1 1 2 3 5 6 6 6 4 4 5 3 3 4 7 8 10 11 10 12 14 14 12 13 12 12 12 12 13 13 11 12 11 12 11 12 11 13 12 13 13 13 13 12 11 11 10 10 10 11 9 9 9 9 8 8 8 8 8 8 8 7 7 7 6 6 6 6 6 6
2 3 4 2 3 4 4 3 1 4 2 2 1 1 1 1 1 2 2 1 3 2 5 5 6 5 5 8 7 7 6 7 7 8 9 11 10 9 11 12 12 12 13 13 12 12 12 12 11 11 11 10 10 11 11 12 12 13 12 13 12 12 12 11 10 10 10 12 12 8 9 9 9 7 7 8 8 8 9 8 8 7 6 6 7 7 7
0 1 1 1 2 3 4 2 1 1 1 1 3 3 4 4 4 3 3 3 2 3 6 4 6 6 4 5 8 10 9 9 10 13 15 14 12 12 14 13 13 14 12 13 13 13 11 10 11 10 10 9 11 12 12 12 13 13 12 12 11 12 11 10 10 10 10 10 10 9 9 8 8 9 9 8 8 6 6 7 8 8 7 7 7 7 7
1 4 4 4 5 2 2 2 1 2 1 1 5 5 6 6 5 4 5 6 5 5 2 4 6 7 5 5 7 10 11 11 11 9 9 10 11 9 8 10 11 11 11 12 13 12 10 10 10 11 9 9 10 11 11 11 13 13 12 12 11 11 11 10 10 10 9 9 9 9 9 8 7 3 3 3 7 8 7 7 10 11 10 9 9 7 7
4 6 4 3 2 3 4 3 3 3 2 3 7 4 3 4 3 1 4 4 5 4 3 1 4 7 7 6 5 5 4 5 5 9 12 12 10 11 11 11 9 10 10 10 11 11 10 10 10 10 10 10 10 11 11 12 13 13 13 11 10 9 10 10 11 10 9 9 8 8 8 8 7 7 5 3 6 3 1 4 8 11 11 13 11 12 10
1 2 5 5 3 4 1 1 2 2 2 5 6 2 2 2 3 2 3 3 4 1 2 2 1 4 6 5 8 8 5 5 8 7 5 8 12 14 13 14 13 12 10 11 13 12 10 10 10 10 10 10 11 12 12 12 12 13 13 12 11 10 10 9 11 10 9 10 9 8 8 8 8 7 7 6 1 5 5 2 2 7 10 11 12 13 14
0 1 4 4 3 3 1 0 1 1 2 1 5 4 4 5 5 2 3 1 1 6 5 2 2 4 7 7 6 9 9 7 8 10 11 11 11 12 11 10 12 13 14 12 10 10 10 11 10 10 10 10 11 12 12 12 12 13 13 12 12 10 10 10 10 10 9 9 8 8 8 8 7 6 7 7 8 4 2 6 5 2 3 8 11 13 14
1 5 3 3 2 2 1 1 4 4 4 2 3 1 3 4 4 6 5 3 1 1 4 6 5 4 5 8 6 5 6 8 9 9 8 8 7 7 9 13 13 10 10 10 10 11 11 12 12 10 10 10 11 11 11 12 12 13 13 12 13 11 10 11 11 9 9 9 9 8 8 8 8 7 6 6 6 6 5 1 1 2 3 2 5 6 7
3 5 7 6 4 1 1 2 1 0 2 2 4 3 2 3 5 4 3 3 3 3 3 2 5 6 4 2 4 5 9 8 6 8 9 10 12 14 13 10 10 11 12 11 10 12 14 12 11 11 11 11 11 11 12 12 12 12 11 11 10 12 16 14 11 10 10 9 9 8 8 8 7 7 7 6 6 7 7 7 6 6 4 4 4 7 6
4 1 2 2 3 3 1 2 1 0 1 4 3 4 2 4 7 7 6 5 5 4 4 3 4 6 6 5 7 7 6 9 12 10 9 12 11 9 8 10 11 11 11 11 11 11 12 12 12 12 12 11 12 12 13 13 13 13 12 11 11 10 10 13 11 9 9 9 9 9 9 8 8 7 7 6 6 6 6 7 7 7 5 6 4 5 7
0 1 0 2 4 4 1 2 1 2 3 3 3 5 5 6 5 5 3 2 2 2 4 4 2 1 5 6 7 8 9 9 9 11 12 9 7 8 8 9 9 9 9 9 9 9 10 10 11 12 12 12 13 13 13 13 13 13 12 11 10 10 10 10 9 9 8 7 6 7 6 7 7 7 6 6 6 6 6 6 7 6 6 5 2 1 2
1 2 5 5 4 5 5 3 2 1 2 3 5 5 4 4 4 3 2 2 2 2 2 2 3 3 3 5 5 9 12 12 13 10 7 8 8 8 9 8 7 5 5 6 9 10 12 12 12 12 10 9 11 12 13 13 12 12 13 12 11 11 10 10 9 9 8 8 8 9 8 8 7 7 7 7 7 7 6 7 7 7 6 4 5 7 7
1 0 5 4 5 4 6 4 2 0 1 2 4 4 4 4 4 2 3 2 2 2 3 2 4 3 4 4 4 2 2 2 3 4 3 2 3 8 10 12 13 12 13 14 13 13 12 12 12 11 9 10 11 11 12 12 11 11 11 10 10 13 15 14 12 10 9 9 8 8 7 8 7 8 8 7 7 6 6 6 6 6 6 5 6 7 8
4 4 5 2 1 3 3 1 1 1 1 1 3 4 2 2 1 1 2 2 0 1 1 1 4 4 3 2 3 4 4 6 7 8 7 6 3 0 2 7 14 17 17 15 13 13 13 12 12 10 11 12 12 12 12 11 11 11 11 10 10 9 11 15 9 10 9 9 9 9 9 8 7 7 7 7 8 8 7 6 6 6 6 6 6 7 8
6 3 0 0 1 0 1 2 3 3 3 3 4 2 1 1 0 2 3 1 3 3 3 2 2 2 2 3 4 5 6 6 5 6 9 10 11 11 8 6 2 2 2 5 8 10 12 14 13 10 12 13 13 13 13 13 12 11 10 10 9 10 10 11 10 8 7 7 7 7 6 7 7 7 8 8 7 7 6 7 7 7 6 7 8 8 7
11 9 10 9 8 7 5 5 3 2 1 0 1 1 2 1 0 0 1 3 4 4 4 3 2 3 3 4 4 4 6 8 6 7 6 5 6 7 6 5 5 5 4 6 8 7 5 4 3 6 9 10 11 11 11 12 11 10 10 10 9 9 10 9 9 8 7 7 8 10 9 8 8 8 7 7 7 7 7 7 7 7 7 7 8 8 8
1 0 1 4 4 4 5 5 6 5 3 3 2 1 0 1 2 2 3 4 3 3 3 3 4 4 4 5 5 4 3 3 3 4 4 5 5 5 5 6 6 6 6 5 6 6 7 8 9 9 9 8 7 7 8 10 10 10 10 10 10 9 9 8 8 8 8 7 7 7 7 7 7 7 7 7 7 8 7 8 8 7 7 8 8 7 8
4 3 3 1 1 3 4 4 5 6 5 3 3 3 2 1 3 4 4 4 4 5 4 4 4 4 5 4 5 4 4 4 4 4 4 4 4 4 6 8 8 8 7 5 4 5 6 7 10 13 11 12 11 10 10 10 10 10 10 10 9 9 9 9 8 7 7 7 7 8 8 9 9 8 8 7 6 6 7 8 8 8 8 8 8 7 7
2 4 3 2 2 2 2 3 4 5 4 4 4 4 2 2 4 3 4 4 4 4 4 4 5 5 4 3 3 3 3 4 5 5 5 4 4 4 5 6 8 8 8 9 7 5 8 10 15 18 12 10 10 10 10 13 10 10 10 10 9 10 9 8 8 7 8 7 8 8 8 7 7 7 7 7 8 8 7 7 8 8 7 8 8 7 7
1 2 4 3 3 4 4 2 2 4 6 4 2 1 2 4 3 4 5 4 4 4 4 4 5 5 4 4 4 4 3 3 4 4 4 4 5 6 5 7 7 7 9 7 4 5 6 10 14 11 9 9 10 10 11 14 13 12 10 9 9 9 9 8 8 8 8 8 7 7 7 7 7 7 6 7 7 7 7 7 7 7 8 8 7 7 7
4 3 4 3 4 5 5 4 3 2 4 7 4 4 3 3 4 4 4 4 4 4 5 5 5 5 4 4 3 3 3 2 3 4 4 4 3 5 4 3 3 3 2 5 8 8 9 11 10 10 10 9 9 8 10 13 14 10 9 9 9 8 9 8 8 8 8 7 7 7 7 7 6 7 7 7 7 7 7 8 8 7 7 8 7 7 7
4 4 4 4 5 4 5 4 4 4 2 3 7 6 4 5 4 5 4 4 3 3 5 5 5 5 3 2 3 3 3 3 3 4 4 4 4 4 4 3 3 4 7 10 9 8 11 14 11 8 8 7 8 8 8 11 11 8 8 8 8 7 7 7 6 7 7 6 7 6 6 6 6 7 7 7 7 7 7 7 7 7 7 6 7 7 6
4 4 4 4 5 4 5 5 4 2 3 4 4 4 4 5 5 5 4 4 4 3 4 5 5 4 4 5 3 2 3 3 3 4 4 4 4 5 5 4 1 3 6 6 5 7 12 11 9 8 7 8 8 9 9 9 9 7 7 7 7 7 6 7 6 7 7 6 7 7 6 6 6 6 7 6 7 7 7 7 7 7 7 7 7 7 6
3 2 3 4 4 4 4 4 4 4 2 3 4 5 5 5 7 7 4 4 4 3 3 1 2 2 3 3 3 3 3 3 3 3 4 7 8 6 5 4 2 4 7 8 8 9 8 7 6 6 7 7 7 12 11 9 7 7 6 6 6 6 6 7 7 6 6 6 6 6 6 6 7 7 7 7 7 7 7 7 7 7 7 7 7 7 7
4 5 5 4 3 3 5 5 5 5 4 2 4 4 4 3 4 4 4 4 4 3 2 2 2 4 4 4 4 3 3 3 3 3 2 2 1 2 4 4 5 6 10 8 8 7 8 7 7 8 9 9 9 13 13 8 7 7 7 6 6 6 6 6 7 6 6 7 7 7 6 6 6 7 7 7 7 7 7 7 7 7 7 7 7 7 7
3 4 4 4 4 3 4 4 3 4 5 4 3 2 3 4 4 6 6 5 4 4 4 4 3 3 3 4 4 4 4 4 5 4 5 3 1 1 1 4 3 6 10 8 7 8 8 7 6 9 12 13 13 14 10 8 7 7 6 6 5 4 5 5 6 6 6 6 6 7 7 7 7 7 7 7 7 7 7 7 7 7 7 7 7 7 7
4 5 5 5 5 4 4 4 6 7 5 3 4 3 3 3 3 3 7 7 7 6 4 4 5 5 5 5 6 6 6 6 6 6 5 3 4 5 1 5 6 6 7 8 7 7 7 7 8 10 10 12 13 13 8 7 7 7 6 6 5 6 7 7 7 6 7 7 7 7 7 7 7 8 8 8 8 8 8 8 8 8 7 7 7 7 7
3 4 4 5 5 6 7 6 2 3 5 5 3 1 2 4 5 4 3 5 5 6 7 7 6 6 6 5 3 2 2 2 3 4 3 4 6 4 5 6 6 6 9 9 7 7 7 9 11 11 11 11 12 10 7 7 6 6 6 7 7 8 7 7 7 6 7 7 7 7 7 7 7 7 7 7 8 8 8 7 7 7 7 7 7 8 8
4 2 3 5 3 1 1 2 3 5 4 4 4 4 4 2 2 4 4 4 4 4 4 4 4 3 4 6 7 4 3 2 2 4 4 2 2 5 7 8 8 9 9 7 7 7 7 8 10 12 12 11 11 8 7 7 7 6 7 7 7 7 7 7 8 8 7 7 8 8 8 8 8 8 7 7 7 7 7 7 7 8 7 7 7 7 7
4 3 3 4 4 2 4 5 5 5 6 8 7 6 4 3 3 2 2 3 2 3 3 3 3 3 4 4 4 3 5 6 2 5 5 5 3 3 5 6 6 8 10 8 9 7 10 11 12 13 12 12 9 6 7 7 7 7 7 7 7 7 7 7 6 7 7 7 7 6 7 7 7 7 7 7 8 8 7 8 8 8 7 8 8 8 7
3 4 3 4 5 4 5 5 5 6 6 5 4 4 3 3 2 2 3 3 3 3 4 4 3 4 4 4 4 5 4 4 4 2 3 7 7 6 5 6 9 10 8 7 7 6 8 10 11 12 13 11 8 7 6 6 7 7 7 7 7 7 7 7 7 7 7 8 8 8 8 8 8 7 8 8 8 8 8 8 8 8 8 8 8 8 8
1 3 4 4 5 5 5 6 5 7 4 3 6 3 3 3 3 4 4 5 6 6 4 4 4 4 5 4 4 4 5 5 3 1 3 5 5 5 6 6 7 9 9 7 6 6 7 10 10 10 10 8 7 7 7 7 6 7 7 7 7 7 8 8 7 8 8 7 7 7 8 8 8 9 8 7 8 8 8 8 8 10 13 9 7 7 8
1 2 1 2 5 4 2 2 4 4 5 6 5 4 6 6 7 6 6 4 2 3 4 5 4 3 3 5 5 6 5 4 4 4 3 5 5 6 6 6 7 7 7 7 7 7 6 6 7 7 8 8 7 7 7 8 7 8 7 7 7 7 7 7 7 7 7 8 7 7 8 8 8 8 8 8 8 8 8 8 8 7 7 7 8 8 8
10 8 6 6 6 6 6 7 5 4 2 3 4 5 6 7 6 5 3 4 5 6 6 4 4 5 4 5 6 6 5 6 5 4 4 4 6 6 6 7 7 7 7 7 8 7 7 7 8 9 9 8 7 8 8 9 8 8 8 8 7 7 8 7 7 7 7 8 8 8 8 8 8 8 8 8 8 8 8 8 8 8 7 7 7 6 4
Wind_Direction
217 217 162 151 145 150 166 159 155 159 174 141 168 218 202 143 161 200 233 181 191 234 203 192 188 174 177 182 178 170 161 150 149 152 159 166 168 168 168 172 173 172 174 176 173 171 170 166 167 166 162 164 164 162 157 155 153 152 147 144 146 146 144 144 148 148 140 136 133 121 123 124 125 123 120 118 116 115 110 106 102 101 99 97 97 85 74
33 205 244 174 134 131 148 161 169 159 155 184 176 202 193 173 183 198 173 174 214 215 208 193 196 191 174 133 113 121 147 162 161 164 169 171 170 172 175 176 177 179 178 174 172 169 169 170 168 167 167 168 167 161 157 154 151 149 147 152 150 150 149 148 145 141 141 141 135 124 128 129 128 125 121 119 115 110 106 106 108 105 96 92 90 95 89
300 316 56 128 135 135 149 196 151 156 159 126 148 120 31 19 53 353 142 169 239 255 168 15 28 71 100 128 150 163 165 160 163 168 173 174 177 180 181 178 178 177 174 172 171 172 173 172 172 169 169 165 160 160 160 159 156 155 150 152 153 152 149 147 145 142 139 138 133 130 131 126 126 125 122 119 114 111 111 114 113 109 101 95 88 87 90
297 354 45 57 103 101 112 108 95 130 136 144 192 160 203 153 173 126 99 134 256 277 82 113 130 136 145 162 166 161 168 170 167 173 176 178 181 181 180 180 177 175 174 173 175 178 174 171 170 171 169 164 159 161 158 161 158 153 151 153 154 151 146 145 145 144 138 138 134 129 130 132 132 129 123 119 118 120 120 120 114 104 100 100 99 95 91
273 277 62 104 111 94 65 266 213 186 185 186 166 318 158 196 147 115 132 215 225 208 161 127 159 165 171 164 172 173 171 174 176 178 179 182 183 182 181 179 180 179 179 179 177 173 170 171 172 175 168 162 164 159 159 159 154 159 156 154 151 148 148 146 146 141 141 141 140 139 139 136 134 131 126 122 124 127 129 132 117 109 116 106 100 97 92
248 311 1 33 92 171 237 235 190 152 169 169 142 204 208 206 146 198 195 205 162 128 168 158 174 169 183 186 194 177 169 174 184 185 183 183 184 183 183 182 182 181 175 172 174 175 176 174 172 169 168 168 167 163 156 153 157 161 156 153 150 149 148 146 145 145 145 142 140 140 139 137 136 134 131 133 134 133 127 119 117 115 109 110 109 94 96
236 340 21 70 177 230 240 219 232 224 182 159 159 213 314 239 131 81 110 122 163 188 188 180 181 189 195 192 166 176 184 171 172 179 183 184 179 182 181 180 180 176 175 171 170 171 174 172 167 161 167 164 148 146 152 154 159 158 160 152 150 149 148 146 146 147 146 143 139 140 142 140 139 138 136 133 136 142 139 140 136 135 131 119 111 101 93
293 49 29 110 236 239 276 288 213 188 94 108 99 56 339 337 182 168 229 204 192 184 209 236 190 187 81 73 66 175 182 182 179 175 182 181 178 182 185 182 180 174 174 176 176 177 169 166 166 165 164 157 157 161 161 158 154 155 153 151 147 147 150 154 154 152 148 146 143 142 143 144 143 143 143 147 148 152 138 128 116 109 103 106 110 110 101
136 167 132 203 289 350 352 35 124 192 151 170 154 166 273 243 182 153 201 249 193 185 190 102 89 95 79 82 327 320 173 195 199 189 184 176 184 188 185 181 180 179 176 173 172 164 166 168 163 165 156 155 152 148 153 155 151 150 151 153 156 157 156 156 154 152 149 148 149 148 149 148 149 149 150 150 151 148 133 140 139 139 146 136 139 130 123
109 120 35 0 28 288 275 242 268 284 187 170 174 103 278 301 277 182 185 207 207 164 104 103 99 81 76 248 246 220 201 184 182 183 192 202 194 183 172 164 158 161 166 162 161 164 163 165 163 157 156 154 150 152 155 153 154 156 160 162 162 161 160 158 155 154 154 154 154 153 153 154 153 154 154 151 156 158 146 150 151 159 145 129 146 145 136
43 37 101 212 133 241 218 267 275 298 154 163 167 83 206 271 255 239 174 189 227 177 148 137 124 105 156 227 237 202 176 175 177 178 186 182 178 173 170 168 165 163 164 164 164 163 162 163 161 155 156 154 154 159 159 161 163 164 167 164 165 164 159 156 153 153 155 156 157 157 157 155 154 154 159 160 159 150 150 149 156 150 145 143 154 162 159
76 134 65 353 204 130 334 262 287 313 45 123 86 166 267 258 268 230 156 170 167 160 140 149 144 156 189 227 246 188 180 181 180 179 176 170 169 168 157 161 165 160 152 149 160 166 168 165 156 157 156 157 160 161 164 163 167 170 172 168 161 153 153 153 154 160 162 159 158 159 157 150 150 151 146 141 149 151 154 150 149 158 156 158 164 185 184
112 85 309 324 313 280 268 273 284 309 256 71 102 191 230 248 244 252 170 163 161 138 148 161 168 214 195 207 266 105 142 129 157 164 154 162 159 159 161 159 149 155 164 168 171 171 167 158 157 158 158 158 163 164 163 168 176 174 162 151 149 150 149 154 160 160 159 159 157 157 154 151 146 142 145 144 142 142 147 147 146 159 171 175 170 171 180
157 180 109 223 241 243 260 299 261 273 71 124 192 234 192 150 248 300 218 156 170 156 165 197 212 213 193 42 120 143 161 176 172 148 137 133 133 128 140 150 154 157 162 165 161 159 158 157 158 158 159 162 164 163 166 178 176 153 147 146 146 153 157 159 160 161 159 155 154 151 146 142 143 142 140 135 143 150 152 155 164 177 180 176 171 169 173
66 43 64 19 113 275 163 306 340 36 97 230 208 200 238 189 217 109 342 197 187 170 182 196 209 232 249 21 139 166 160 142 154 159 158 159 159 155 148 158 165 157 159 163 165 163 160 161 160 162 162 163 165 164 176 178 155 149 146 148 153 156 157 160 163 160 157 153 153 150 151 152 147 149 149 150 152 155 155 164 171 179 181 175 156 165 182
142 114 127 188 210 246 278 135 179 251 189 194 200 128 36 40 171 163 157 260 199 201 186 203 224 228 193 92 132 141 169 163 142 144 143 138 138 150 160 162 162 160 159 160 158 161 160 162 163 164 165 164 165 171 180 153 144 143 146 152 155 157 162 163 161 160 158 157 154 155 153 152 151 150 158 160 160 169 166 167 174 178 185 168 160 171 195
121 184 212 233 237 230 262 176 222 228 291 177 185 137 146 112 0 168 126 148 201 190 201 219 221 225 223 202 174 162 174 166 163 165 170 167 167 165 163 163 162 163 161 160 158 160 164 164 164 165 167 166 168 176 163 146 151 152 154 156 158 161 162 162 161 158 156 158 158 157 158 156 157 160 163 165 168 178 167 172 175 179 184 174 184 196 193
240 245 180 300 329 349 345 358 299 119 30 25 77 120 86 267 250 195 168 145 162 183 182 156 197 217 210 161 220 196 167 167 164 143 132 131 133 139 145 152 160 157 151 153 155 157 163 165 164 166 170 170 172 171 153 155 154 154 154 156 159 161 161 161 161 156 157 160 160 161 160 165 164 166 170 174 174 175 179 181 180 180 181 182 196 193 205
73 117 325 50 45 318 315 355 15 338 64 179 198 125 91 246 277 284 311 165 157 146 146 150 156 173 151 147 142 132 136 145 155 156 152 151 153 153 158 157 150 149 153 154 159 159 161 167 165 169 170 177 172 152 156 155 153 153 156 158 159 160 162 160 158 159 159 162 162 163 164 164 165 170 171 176 180 179 185 185 184 186 178 183 190 196 209
120 198 231 250 259 255 260 238 190 97 80 73 30 129 172 163 149 114 121 113 77 98 114 143 131 144 149 145 148 140 141 137 135 137 136 138 146 161 154 155 158 151 156 157 158 161 163 166 166 168 172 169 153 151 155 153 153 154 157 162 163 164 160 159 161 163 164 162 160 165 170 168 170 172 177 181 185 188 187 188 184 190 182 185 190 196 209
288 328 270 254 5 351 350 344 228 224 240 72 51 35 57 58 56 42 67 81 126 137 146 128 120 125 156 151 148 140 142 141 147 159 166 167 161 155 155 161 160 160 159 160 162 162 164 164 164 167 169 160 155 156 157 156 154 157 161 160 158 157 158 158 162 165 163 166 169 166 169 173 179 180 180 183 189 197 202 185 185 181 185 195 197 201 195
126 178 196 147 124 224 281 300 297 298 300 112 70 36 37 25 31 33 58 36 52 77 92 142 138 142 153 158 154 156 163 166 162 150 145 145 145 148 149 150 156 157 160 155 158 161 161 163 164 166 162 156 157 160 157 158 158 158 157 158 159 161 161 162 161 162 164 169 169 167 166 170 165 130 31 170 189 189 202 208 200 193 178 190 196 183 186
217 242 231 174 145 166 216 218 297 310 308 82 69 67 43 18 20 12 79 64 51 49 46 77 139 148 155 158 141 134 142 147 145 148 143 141 142 147 151 148 153 155 156 154 152 157 162 164 166 164 159 156 157 160 160 161 162 158 156 158 160 160 162 166 167 167 164 166 168 165 167 163 162 164 150 65 51 63 223 208 210 214 203 209 190 183 181
243 216 194 178 136 163 224 285 293 319 340 89 86 39 37 13 1 17 83 113 126 126 82 80 133 163 146 155 147 140 115 122 131 140 145 148 152 155 161 164 161 155 151 157 163 165 163 164 165 163 159 161 161 163 162 162 161 159 162 160 165 168 169 164 164 165 165 166 164 166 168 168 167 168 163 161 137 41 57 61 255 229 225 219 202 196 199
17 197 164 180 156 128 85 172 294 300 323 85 97 70 55 40 14 33 86 92 181 143 143 141 145 167 158 160 156 153 151 149 154 156 155 151 154 158 164 159 161 164 167 165 159 157 161 165 164 163 161 166 165 164 164 163 161 162 166 165 162 163 163 160 163 165 164 164 167 166 167 162 166 166 168 175 179 184 26 43 68 77 208 212 203 196 198
180 99 109 129 88 56 348 50 34 8 358 16 83 46 20 55 65 51 24 39 40 118 134 154 155 184 169 159 153 135 134 152 151 143 141 146 147 151 165 174 173 164 154 154 157 160 164 166 163 161 163 167 167 166 163 163 165 165 168 168 163 162 162 163 163 167 168 167 166 170 167 169 171 172 176 172 172 166 153 140 19 14 43 118 180 196 208
94 141 109 58 40 14 23 122 190 270 340 357 92 91 49 55 73 86 76 50 58 79 111 173 182 168 154 115 126 143 151 138 134 152 159 162 169 178 180 171 161 159 159 157 161 167 164 161 161 166 170 173 169 164 164 164 164 164 165 163 162 165 161 162 168 169 170 167 168 168 164 167 165 169 170 172 168 166 170 171 183 187 201 223 210 187 191
158 199 109 132 200 198 221 240 209 90 0 29 29 34 4 58 45 38 20 10 24 24 48 63 125 145 138 131 131 108 116 151 165 168 169 183 184 174 165 164 161 158 162 165 165 164 165 168 169 171 175 172 168 168 168 165 163 164 164 164 161 161 168 169 167 168 167 168 168 169 172 173 166 164 160 161 169 180 181 182 182 196 221 219 214 219 205
161 212 16 139 165 177 111 67 63 47 35 2 54 41 42 53 40 44 11 350 356 359 70 44 46 106 149 155 145 150 160 169 174 182 186 178 167 167 163 157 157 156 157 159 159 162 167 169 174 179 182 173 168 168 166 164 165 166 166 166 163 164 168 173 169 164 158 152 163 168 159 145 145 153 161 169 174 180 186 189 197 208 209 208 179 234 251
236 148 105 102 109 118 112 126 133 50 35 21 61 40 38 79 51 2 337 336 15 37 26 54 67 69 116 151 164 161 166 180 191 188 172 166 165 157 149 132 109 105 115 143 166 173 176 178 177 180 177 174 171 167 165 167 167 167 166 166 165 166 170 169 163 158 153 164 162 153 150 154 160 161 165 172 181 187 191 200 204 201 211 210 198 199 206
249 80 119 128 124 137 144 179 181 161 30 42 78 69 29 63 83 23 352 326 30 38 359 79 109 97 107 152 163 171 183 146 108 98 87 96 150 158 151 151 154 169 178 185 181 178 180 179 182 180 166 164 168 168 166 166 164 163 165 166 165 165 163 165 166 164 162 157 152 155 160 162 167 167 175 179 183 190 200 211 210 214 217 204 202 211 222
118 90 80 64 97 144 135 97 163 193 170 103 71 61 34 62 32 345 295 291 231 98 52 43 103 124 150 145 116 104 107 116 118 117 120 102 78 151 231 197 184 181 184 181 175 175 177 174 181 178 163 168 167 169 168 166 164 167 170 163 159 163 165 163 165 168 161 159 159 164 167 171 176 174 172 183 190 192 199 201 214 217 217 209 217 224 229
133 120 36 179 49 56 195 247 173 208 206 141 143 164 171 197 196 242 245 194 106 74 68 55 74 101 120 115 109 114 115 119 131 149 159 167 170 163 151 181 222 254 206 177 168 175 173 182 185 166 169 170 169 169 170 168 167 165 161 161 161 160 159 169 168 162 159 148 151 155 163 179 174 177 191 191 190 190 196 204 213 216 218 219 221 233 221
164 184 193 188 172 183 197 220 225 222 270 288 168 155 102 106 185 164 106 97 100 100 108 120 104 100 88 94 100 111 123 122 137 172 183 170 157 161 165 149 131 137 134 131 133 168 200 189 148 162 167 167 167 167 166 165 163 160 158 156 155 154 162 168 159 160 154 157 165 174 179 184 180 187 192 190 192 196 200 205 211 215 220 227 233 237 239
90 167 177 196 199 182 176 168 179 187 185 158 123 48 161 121 107 117 128 118 124 145 137 119 112 105 103 96 96 95 102 127 147 140 147 143 149 146 133 122 117 120 129 156 173 182 159 142 136 129 122 122 148 171 169 165 160 156 154 152 151 154 158 158 162 163 161 170 172 175 183 184 194 194 192 187 196 198 203 208 211 212 216 227 239 239 243
119 89 68 67 200 193 178 175 169 167 168 161 150 141 130 131 121 118 120 123 126 118 114 109 97 90 82 98 113 119 120 118 114 109 107 117 125 130 132 139 142 135 140 159 184 159 146 140 144 146 148 159 167 171 169 166 160 154 151 148 148 148 153 160 166 162 169 169 178 182 180 190 194 193 192 194 198 199 204 211 213 215 215 225 231 235 244
69 126 130 105 70 101 117 138 157 141 146 141 136 112 103 126 134 130 110 106 108 113 120 118 99 91 92 90 102 93 106 132 134 133 135 131 119 117 131 139 148 153 152 174 199 163 150 152 153 149 148 159 166 169 165 161 158 156 152 154 154 154 157 165 175 179 185 186 182 182 185 179 183 191 193 194 201 204 201 209 215 216 218 223 225 227 239
37 103 116 108 101 85 82 86 118 125 113 76 62 82 146 149 144 132 128 123 122 125 109 95 110 117 110 91 80 92 102 103 121 127 130 132 134 127 139 151 163 160 177 188 146 127 124 140 145 145 151 161 167 169 167 168 156 155 157 157 158 158 160 166 176 185 187 188 189 185 183 182 186 191 194 200 204 200 202 208 209 211 216 219 219 218 221
82 73 76 78 81 82 83 64 62 64 114 121 109 92 87 108 102 103 105 116 122 118 104 106 109 98 100 102 103 101 112 124 126 124 123 127 127 135 153 151 151 152 120 117 128 133 145 151 156 161 170 171 166 160 159 162 156 156 153 148 153 161 161 166 175 181 184 184 180 189 190 193 199 202 200 200 199 200 201 205 207 211 211 212 207 214 217
119 111 124 107 98 97 85 77 83 94 93 127 136 142 151 124 125 121 122 121 138 138 128 131 124 120 115 123 146 165 168 155 151 138 134 131 112 113 103 83 110 132 141 146 149 154 155 159 161 162 163 162 158 152 155 160 151 144 147 146 149 155 157 157 166 177 187 170 170 170 185 195 205 208 211 209 202 203 204 206 207 210 215 216 213 217 216
151 138 137 126 135 129 124 118 112 119 129 116 107 117 130 136 131 126 148 160 164 147 151 146 132 145 183 183 184 152 140 150 148 151 135 115 120 143 144 173 221 137 153 153 136 136 154 162 164 156 158 156 154 149 149 156 146 138 137 142 146 153 154 160 171 183 181 170 171 170 181 186 203 220 217 210 212 210 209 209 210 213 210 215 223 220 220
153 131 126 125 126 139 129 121 111 90 83 117 135 140 151 162 152 161 165 144 137 142 143 119 71 166 161 129 114 119 134 153 156 164 168 166 170 156 155 223 214 168 145 128 128 138 154 156 142 144 152 148 142 149 149 152 145 139 137 144 153 160 159 166 182 192 181 175 180 195 195 196 196 208 209 208 209 213 212 213 217 221 223 220 222 221 219
143 151 160 156 175 166 141 143 146 151 151 169 166 169 167 143 105 113 126 140 141 131 118 108 100 114 135 138 137 146 166 162 160 181 198 260 191 195 186 197 170 170 146 139 144 149 159 167 158 158 158 152 150 149 147 152 153 152 153 156 155 164 170 178 189 194 186 182 186 198 197 199 205 211 209 210 215 214 210 210 216 222 223 222 225 226 226
159 140 159 162 182 165 128 116 112 124 144 199 215 196 154 144 147 139 143 146 149 170 168 163 153 156 155 152 145 150 166 174 184 181 174 232 289 265 117 146 169 160 153 142 152 158 170 171 170 164 160 154 151 150 151 158 164 171 169 157 158 172 183 191 195 191 189 192 193 197 200 201 205 209 209 213 218 220 217 219 223 225 228 226 227 227 231
160 156 172 187 163 138 132 140 158 183 185 160 147 150 181 160 172 168 151 162 167 184 182 172 178 176 174 178 186 192 190 185 180 158 152 196 226 260 204 142 141 154 167 152 154 162 173 177 174 162 163 159 158 156 152 157 169 176 174 176 184 188 197 200 200 199 199 200 205 206 204 205 206 205 207 212 211 212 216 216 222 221 219 226 225 227 230
184 178 143 130 152 179 192 193 191 112 123 126 115 121 217 197 172 176 176 158 174 185 186 186 185 192 185 182 165 131 140 174 189 205 207 168 181 215 166 152 161 166 175 167 159 168 181 182 174 171 168 166 163 165 170 172 174 174 177 184 195 198 198 200 202 204 205 208 209 206 205 206 204 207 208 210 212 216 226 226 231 231 221 226 228 227 231
174 156 164 160 168 195 164 115 110 103 101 109 137 196 235 215 204 188 192 201 178 178 184 200 209 200 182 174 162 148 150 192 261 231 223 225 156 139 158 161 161 168 168 174 175 182 179 179 181 180 176 172 167 174 177 180 184 186 185 192 195 197 200 203 202 205 205 209 210 209 209 204 203 208 209 213 218 220 224 223 228 235 231 229 237 243 246
149 169 161 138 143 125 108 115 124 143 161 178 189 202 219 201 172 200 191 181 182 177 188 197 187 188 193 199 204 194 167 154 177 266 204 196 183 144 149 158 170 174 177 188 192 197 187 181 181 182 183 176 175 185 183 185 185 190 193 194 193 195 198 200 203 202 203 203 204 206 214 217 219 215 211 209 217 219 221 219 227 234 234 226 230 229 229
182 164 149 125 121 122 128 145 155 161 195 196 185 211 195 177 168 173 182 178 166 193 215 226 209 202 200 209 200 207 198 193 160 216 207 173 183 172 166 171 172 171 177 188 195 205 196 194 188 187 182 178 185 188 187 187 191 195 200 200 201 196 193 195 201 198 199 203 202 203 207 210 214 209 214 215 217 218 217 222 227 227 229 226 225 226 226
52 94 129 145 143 140 149 149 174 200 191 169 218 196 137 139 146 222 197 182 198 203 210 215 210 202 195 209 214 211 199 211 224 150 138 173 179 171 166 171 177 185 187 191 200 200 199 195 195 189 180 188 193 189 186 187 188 191 197 202 203 206 204 204 203 201 201 207 207 209 212 216 217 220 218 217 216 216 214 218 222 229 232 231 228 226 222
81 114 113 95 95 98 108 172 215 202 192 210 212 168 155 179 198 204 196 186 156 172 206 231 251 236 216 210 212 209 215 219 216 207 164 168 179 185 181 176 178 185 193 198 200 202 187 188 192 187 189 196 198 197 192 194 196 197 197 202 203 205 208 209 206 208 208 208 209 212 215 218 219 220 219 219 218 217 216 216 220 223 220 222 226 227 224
26 8 23 40 46 52 60 50 32 17 336 268 197 170 191 203 203 215 234 197 176 193 184 175 243 265 230 222 215 222 210 211 211 199 193 185 186 193 194 185 178 186 191 203 207 202 195 193 190 190 190 193 199 204 206 203 201 204 208 209 210 211 211 212 208 212 218 214 211 218 219 218 214 215 220 220 218 218 220 219 220 220 220 221 227 231 245